Regional Weather Roundup
Issued by NWS

Home | Current Version | Previous Version | Graphics & Text | Print | Product List | Glossary On
Versions: 1 2 3 4 5 6 7 8 9 10 11 12 13 14 15 16 17 18 19 20 21 22 23 24 25 26 27 28 29 30 31 32 33 34 35 36 37 38 39 40 41 42 43 44 45 46 47 48 49 50
000
ASUS43 KMPX 042010
RWRMN
WEATHER ROUNDUP FOR MINNESOTA
NATIONAL WEATHER SERVICE TWIN CITIES/CHANHASSEN MN
300 PM CDT SAT JUL 04 2015


NOTE: "FAIR" INDICATES FEW OR NO CLOUDS BELOW 12,000 FEET WITH NO
SIGNIFICANT WEATHER AND/OR OBSTRUCTIONS TO VISIBILITY. N/A MEANS
CURRENT SKY AND/OR WEATHER CONDITIONS ARE NOT AVAILABLE.

MNZ060>063-068>070-042100-
   Twin Cities Metro

CITY           SKY/WX    TMP DP  RH WIND       PRES   REMARKS
TWIN CITIES    PTSUNNY   84  64  50 S8        29.93S HAZE
ST PAUL        MOSUNNY   82  66  58 SW5       29.93S HAZE
CRYSTAL        MOSUNNY   85  63  47 SW13      29.91F HAZE
BLAINE         MOSUNNY   86  63  45 SW7       29.93
LAKEVILLE      SUNNY     81  66  61 S6        29.95S HAZE
EDEN PRAIRIE   MOSUNNY   82  66  58 S9        29.92F HAZE
SOUTH ST PAUL  SUNNY     83  64  52 S9        29.93S
LAKE ELMO      FAIR      82  66  57 S7        29.95S HAZE
$$
MNZ001>005-007-008-013>017-022>024-027-028-042100-
   Northwest Minnesota

CITY           SKY/WX    TMP DP  RH WIND       PRES   REMARKS
BEMIDJI        SUNNY     80  61  51 S9        29.89F
HALLOCK        SUNNY     82  70  65 S16       29.76F HAZE
ROSEAU         SUNNY     82  66  57 S14G20    29.81F HAZE
WARROAD        SUNNY     81  66  61 S12       29.82F HAZE
THIEF RVR FALL MOSUNNY   82  66  57 S14G21    29.83F
CROOKSTON      SUNNY     82  66  57 S16G25    29.81F HAZE
FOSSTON        SUNNY     81  64  57 S12       29.87F HAZE
DETROIT LAKES  SUNNY     82  64  54 S12       29.89F HAZE
MOORHEAD       MOSUNNY   82  66  57 S13       29.84F
PARK RAPIDS    CLOUDY    83  59  44 S14       29.90F HAZE
MAHNOMEN       FAIR      81  66  61 S9        29.86F HAZE
$$
MNZ006-009>011-018-025>026-042100-
   North Central Minnesota

CITY           SKY/WX    TMP DP  RH WIND       PRES   REMARKS
BAUDETTE       SUNNY     80  60  50 S13       29.84F HAZE
FLAG ISLAND    SUNNY     73  64  73 S14       29.81F
INTL FALLS     SUNNY     80  57  45 SW9       29.88F
WASKISH        SUNNY     81  63  54 S8        29.87F
BIG FORK       SUNNY     81  57  44 S6        29.91F
LONGVILLE      SUNNY     81  61  50 S9        29.91F HAZE
GRAND RAPIDS   SUNNY     81  55  41 S9        29.92F
CRANE LAKE     SUNNY     77  50  38 S5        29.93F
ORR            SUNNY     81  50  34 SE10      29.89F
COOK           SUNNY     79  54  41 SE6       29.92F
WALKER         FAIR      80  62  54 SE9       29.90S HAZE
$$
MNZ012-019>021-037-042100-
   Northeast Minnesota

CITY           SKY/WX    TMP DP  RH WIND       PRES   REMARKS
DULUTH         SUNNY     75  60  59 SE10      29.95F
ELY            SUNNY     81  52  36 SW7       29.93F
HIBBING        SUNNY     81  55  40 SE7       29.92F
DULUTH HARBOR  SUNNY     68  61  77 NE12      29.96F
TWO HARBORS    SUNNY     77  63  61 E7        29.94F
SILVER BAY     SUNNY     73  57  56 E7        29.95F
GRAND MARAIS     N/A     64  56  75 E5        29.97F
G MARAIS ARPRT MOSUNNY   68  52  56 SE6       30.01S
$$
MNZ029>031-032-039>041-046>048-054>057-064-042100-
   West Central Minnesota

CITY           SKY/WX    TMP DP  RH WIND       PRES   REMARKS
FERGUS FALLS   SUNNY     82  66  57 S14       29.86F
WHEATON        SUNNY     81  63  54 S12       29.87F
MORRIS         MOSUNNY   84  64  51 S10       29.87F
ALEXANDRIA     MOSUNNY   81  67  62 S13       29.92F
ELBOW LAKE     PTSUNNY   81  67  62 S13       29.88F
WADENA         MOSUNNY   82  63  51 S10       29.90F HAZE
GLENWOOD       SUNNY     82  66  57 S9        29.92F
APPLETON       MOSUNNY   88  63  42 S9G20     29.88S
BENSON         MOSUNNY   84  66  54 S7G16     29.89F
ORTONVILLE     MOSUNNY   84  63  48 S12G17    29.87F
MADISON        MOSUNNY   82  61  47 S12       29.89S
WILLMAR          N/A     82  68  61 SW5       29.92F
$$
MNZ033>034-036-042>043-049>051-058-059-042100-
   Central Minnesota

CITY           SKY/WX    TMP DP  RH WIND       PRES   REMARKS
ST CLOUD       MOSUNNY   83  63  50 S6        29.92S HAZE
SAUK CENTRE    CLOUDY    80  67  63 S9        29.92S
PAYNESVILLE    PTSUNNY   79  65  60 S6        29.93R
AITKIN         SUNNY     81  63  54 S8        29.92S HAZE
PINE RIVER       N/A     81  63  54 S10       29.94F HAZE
BRAINERD       CLOUDY    82  61  48 S9        29.92S HAZE
STAPLES        MOSUNNY   82  61  47 S9        29.91S HAZE
LONG PRAIRIE   PTSUNNY   81  64  57 SE8       29.92F HAZE
LITTLE FALLS   SUNNY     82  57  42 S6        29.92S HAZE
LITCHFIELD     SUNNY     84  70  61 SW5       29.92S
BUFFALO        PTSUNNY   82  66  56 S6        29.93F
MAPLE LAKE     SUNNY     85  71  63 S6        29.93S
$$
MNZ037-044-045-052-053-042100-
   East Central Minnesota

CITY           SKY/WX    TMP DP  RH WIND       PRES   REMARKS
PRINCETON      SUNNY     84  63  48 S5        29.92F HAZE
MORA           SUNNY     79  59  50 S8        29.94S HAZE
CAMBRIDGE      SUNNY     84  66  54 S8        29.91F HAZE
RUSH CITY      SUNNY     82  63  52 SE5       29.93S
MOOSE LAKE     PTSUNNY   81  55  41 S3        29.92S
HINCKLEY       FAIR      82  57  42 S8        29.93S
CLOQUET        SUNNY     79  55  44 E8        29.94F
MCGREGOR       MOSUNNY   81  57  44 S7        29.93S
$$
MNZ071>073-080-081-089-090-097-098-042100-
   Southwest Minnesota

CITY           SKY/WX    TMP DP  RH WIND       PRES   REMARKS
MONTEVIDEO     MOSUNNY   84  66  54 SW10G17   29.91S
GRANITE FALLS  MOSUNNY   82  65  55 S12       29.92S
CANBY          MOSUNNY   82  63  52 S7        29.90F
MARSHALL       MOSUNNY   82  61  47 SW13        N/A
REDWOOD FALLS  MOSUNNY   84  64  50 S14       29.91F
OLIVIA         MOSUNNY   81  63  54 S9        29.92S
PIPESTONE      MOSUNNY   79  63  57 S9        29.94F
WINDOM         MOSUNNY   82  63  51 S10       29.95F
WORTHINGTON    MOSUNNY   79  61  53 S15       29.96F
JACKSON        MOSUNNY   81  61  50 SW6       29.97F
TRACY          MOSUNNY   82  64  55 S7        29.94S
SLAYTON        MOSUNNY   80  60  51 S9        29.96F
$$
MNZ065>067-074>077-082>085-091>093-042100-
   South Central Minnesota

CITY           SKY/WX    TMP DP  RH WIND       PRES   REMARKS
MANKATO        PTSUNNY   81  64  57 S9G16     29.95S
NEW ULM        SUNNY     81  64  57 S10       29.93F
ST JAMES       SUNNY     82  64  54 S10       29.95F
FAIRMONT       SUNNY     81  59  47 S10       29.96F
GLENCOE        SUNNY     83  69  63 S6        29.93S
FARIBAULT      MOSUNNY   82  68  61 S6        29.96S HAZE
OWATONNA       SUNNY     81  64  57 S10       29.97S
WASECA         MOSUNNY   79  64  61 S8        29.98S
ALBERT LEA     SUNNY     81  61  50 S6        29.98S
$$
MNZ078>079-086>088-094>096-042100-
   Southeast Minnesota

CITY           SKY/WX    TMP DP  RH WIND       PRES   REMARKS
ROCHESTER      MOSUNNY   81  64  56 SW13      29.98F
RED WING       MOSUNNY   84  66  54 SE5       29.93S HAZE
STANTON        MOSUNNY   82  64  54 SW7       29.94S
DODGE CENTER   MOSUNNY   81  64  57 SW7       29.98S
WINONA         SUNNY     81  61  50 SW6       29.96S
AUSTIN         MOSUNNY   81  63  54 SW10      29.98S
PRESTON        MOSUNNY   78  63  58 SW7       29.99F
$$
ABBREVIATIONS USED IN REMARKS
   TC - TEMPERATURES IN CELSIUS
  WCI - WIND CHILL INDEX
   HX - HEAT INDEX
  VSB - VISIBILITY
$$



USA.gov is the U.S. government's official web portal to all federal, state and local government web resources and services.